Hourly Data Report for August 26, 2020

TORONTO CITY
ONTARIO
Current Station Operator: ECCC - MSC

43°40'00.000" N
79°24'00.000" W
112.50 m
6158355
71508
XTO

Download Data

Hourly Data (August 2020)
Hourly Data Report for August 26, 2020
TIME
LST
Temp Definition
°C
Dew Point Definition
°C
Rel Hum Definition
%
Precip. Amount Definition
mm

Wind Dir Definition
10's deg

Wind Spd Definition
km/h
Visibility Definition
km
Stn Press Definition
kPa
Hmdx Definition


Wind Chill Definition


Weather Definition


00:00 19.1 9.8 55 0.0       100.39     LegendNANA
01:00 17.8 8.8 56 0.0       100.39     LegendNANA
02:00 17.3 9.1 59 0.0       100.42     LegendNANA
03:00 16.5 9.2 62 0.0       100.44     LegendNANA
04:00 15.8 8.8 63 0.0       100.43     LegendNANA
05:00 15.1 7.9 62 0.0       100.50     LegendNANA
06:00 15.2 6.9 58 0.0       100.49     LegendNANA
07:00 15.3 6.4 55 0.0       100.53     LegendNANA
08:00 16.3 5.9 50 0.0       100.49     LegendNANA
09:00 17.3 8.9 58 0.0       100.51     LegendNANA
10:00 18.2 9.6 57 0.0       100.42     LegendNANA
11:00 18.8 10.5 58 0.0       100.39     LegendNANA
12:00 20.6 11.9 57 0.0       100.37     LegendNANA
13:00 20.4 11.5 57 0.0       100.31     LegendNANA
14:00 20.1 11.9 59 0.0       100.19     LegendNANA
15:00 20.8 12.0 57 0.0       100.12     LegendNANA
16:00 21.6 13.4 60 0.0       99.99 25   LegendNANA
17:00 20.3 13.5 65 0.0       99.97     LegendNANA
18:00 20.3 14.0 67 0.0       99.97     LegendNANA
19:00 19.4 15.4 78 0.3       99.96     LegendNANA
20:00 19.3 15.8 80 0.2       99.96     LegendNANA
21:00 18.5 16.4 87 2.0       99.94     LegendNANA
22:00 18.9 17.0 89 0.8       99.88     LegendNANA
23:00 18.8 17.0 89 3.7       99.79     LegendNANA

Notes on Data Quality.

Legend

  • E = Estimated
  • M = Missing
  • NA = Not Available*
  • [empty] = Indicates an unobserved value
Date modified: